Regional Weather Roundup
Issued by NWS

Home | Current Version | Previous Version | Text Only | Print | Product List | Glossary Off
Versions: 1 2 3 4 5 6 7 8 9 10 11 12 13 14 15 16 17 18 19 20 21 22 23 24 25 26 27 28 29 30 31 32 33 34 35 36 37 38 39 40 41 42 43 44 45 46 47 48 49 50

000
ASUS45 KABQ 170910
RWRNM
NEW MEXICO REGIONAL WEATHER ROUNDUP
NATIONAL WEATHER SERVICE ALBUQUERQUE NM
300 AM MDT THU AUG 17 2017

NOTE: "FAIR" MEANS FEW OR NO CLOUDS BELOW 12,000 FEET AGL WITH NO
       SIGNIFICANT WEATHER OR OBSTRUCTIONS TO VISION.

      THIS PRODUCT IS RELEASED AS TWO VERSIONS.  ONE VERSION NEAR
      THE TOP OF THE HOUR CONTAINING PRELIMINARY DATA FROM ALBUQUERQUE
      AND OTHER STATIONS.  A FINAL VERSION WITH ADDITIONAL DATA IS
      ISSUED ABOUT 10 MINUTES AFTER THE HOUR.

NMZ501-503-504-510>518-171000-
NORTHWEST PLATEAU/NORTHCENTRAL MOUNTAINS

CITY           SKY/WX    TMP DP  RH WIND       PRES   REMARKS
FARMINGTON     FAIR      55  27  34 NE6       30.16R
LOS ALAMOS     MOCLDY    66  26  22 W6        30.29S
SANTA FE       FAIR      62  36  37 CALM      30.23R
TAOS           CLOUDY    52  39  61 N3        30.31S
ANGEL FIRE     CLOUDY    46  41  85 CALM      30.41S

$$
NMZ402-403-502-505>509-171000-
WESTCENTRAL MOUNTAINS/SOUTHWEST MOUNTAINS

CITY           SKY/WX    TMP DP  RH WIND       PRES   REMARKS
GALLUP         FAIR      52  35  52 CALM      30.27R
GRANTS         FAIR      49  27  42 CALM      30.29R
SILVER CITY    FAIR      56  41  55 N10       30.19S

$$
NMZ407-409-411-412-171000-
SOUTHERN DESERTS

CITY           SKY/WX    TMP DP  RH WIND       PRES   REMARKS
DEMING         FAIR      62  44  51 SW7       30.12R
LAS CRUCES     FAIR      71  33  24 NW7       30.11S
HOLLOMAN AFB   FAIR      69  51  52 SE5       30.10R
ALAMOGORDO     FAIR      68  48  49 CALM      30.10R
T OR C         FAIR      72  39  30 W8        30.12R

$$
NMZ519>523-171000-
CENTRAL VALLEYS/CENTRAL HIGHLANDS

CITY           SKY/WX    TMP DP  RH WIND       PRES   REMARKS
ALBUQUERQUE    FAIR      70  40  33 CALM      30.17R
MORIARTY ARPT  CLOUDY    58  50  74 NW7       30.24R
CLINES CORNERS CLOUDY    62  40  44 SE7       30.29S
BELEN          FAIR      64  38  38 W6        30.16R
SOCORRO        FAIR      68  43  39 CALM      30.13S

$$
NMZ524>526-539-540-171000-
SOUTHCENTRAL MOUNTAINS

CITY           SKY/WX    TMP DP  RH WIND       PRES   REMARKS
RUIDOSO        FAIR      59  41  51 W8        30.30S

$$
NMZ527>531-171000-
NORTHEAST HIGHLANDS/NORTHEAST PLAINS

CITY           SKY/WX    TMP DP  RH WIND       PRES   REMARKS
LAS VEGAS      MOCLDY    53  47  79 N7        30.31R
RATON          FAIR      56  50  80 NE5       30.27S
CLAYTON        FAIR      60  54  80 N5        30.19S

$$
NMZ532>537-171000-
EASTCENTRAL PLAINS

CITY           SKY/WX    TMP DP  RH WIND       PRES   REMARKS
SANTA ROSA     FAIR      62  55  76 NE7       30.15S
TUCUMCARI      FAIR      63  57  81 NE6       30.09S
CANNON AFB     FAIR      64  64 100 E7        30.14R
CLOVIS AIRPORT FAIR      63  59  87 E8        30.14

$$
NMZ028-029-538-171000-
SOUTHEAST PLAINS

CITY           SKY/WX    TMP DP  RH WIND       PRES   REMARKS
ROSWELL        FAIR      72  55  55 S5        30.06S
ARTESIA        FAIR      72  55  56 CALM      30.05F
CARLSBAD       FAIR      70  63  78 SE3       30.03S
HOBBS          FAIR      70  64  83 S6        30.07S


$$




USA.gov is the U.S. government's official web portal to all federal, state and local government web resources and services.